JCSAT-5A

Last updated on Tue Oct 08 2024 00:02:38 GMT+0000 (Coordinated Universal Time)

1 29045U 06010A 24281.55528128 -.00000317 00000+0 00000+0 0 9990 2 29045 0.0121 241.7074 0001390 343.4523 123.5026 1.00272404 67572
UTC large
Height (km)
Speed (km/s)
/
Latitude / Longitude
Inclination (degrees)
Orbital Period (minutes)
Azimuth
Elevation
Range (km)
Doppler Factor

Next 0 passes for location: London (51.5072 / 0.1276)

Sorry there are no passes over London.